Miscellaneous Local Product
Issued by NWS Hastings, NE

Home | Current Version | Previous Version | Text Only | Print | Product List | Glossary Off
Versions: 1 2 3 4 5 6 7 8 9 10 11 12 13 14 15 16 17 18 19 20 21 22 23 24 25 26 27 28 29 30 31 32 33 34 35 36 37 38 39 40 41 42 43 44 45 46 47 48 49 50

405
AXUS43 KGID 290202
MISGRI

GID CWA HOURLY WEATHER ROUNDUP
NATIONAL WEATHER SERVICE HASTINGS NE
900 PM CDT WED JUN 28 2017

NOTE: "FAIR" INDICATES FEW OR NO CLOUDS BELOW 12,000 FEET WITH NO
SIGNIFICANT WEATHER AND/OR OBSTRUCTIONS TO VISIBILITY.

...SOUTH CENTRAL NEBRASKA...

CITY           SKY/WX    TMP DP  RH WIND       PRES   REMARKS
GRAND ISLAND   CLEAR     77  67  71 S6        29.73R
HASTINGS       PTCLDY    81  62  52 N7        29.75R
KEARNEY        MOCLDY    79  64  61 S6        29.76R
ORD            CLOUDY    77  58  51 W8        29.75R
YORK           PTCLDY    77  66  69 W7        29.72R
AURORA         CLEAR     78  65  62 SW5       29.72S
LEXINGTON      CLOUDY    79  66  64 SE3       29.75F
HOLDREGE       CLOUDY    78  65  66 SE5       29.76R
HEBRON         CLEAR     83  68  60 N3        29.70R

...NEBRASKA PANHANDLE...

CITY           SKY/WX    TMP DP  RH WIND       PRES   REMARKS
CHADRON        MOCLDY    77  49  37 VRB6      29.74R THUNDER
ALLIANCE       CLOUDY    75  51  43 SE10      29.76S
SCOTTSBLUFF    CLOUDY    77  45  32 SE10      29.75S
SIDNEY         TSTM      72  54  53 NE8       29.84R

...WESTERN AND NORTH CENTRAL NEBRASKA...

CITY           SKY/WX    TMP DP  RH WIND       PRES   REMARKS
VALENTINE      PTCLDY    83  43  24 NE7       29.74R
AINSWORTH      CLOUDY    79  55  43 CALM      29.76R
ONEILL         CLEAR     78  61  55 CALM      29.72S
BROKEN BOW     CLOUDY    74  61  63 N10       29.78R
IMPERIAL       CLOUDY    79  50  36 S6        29.79R
NORTH PLATTE   PTCLDY    77  57  50 E7        29.75S
MCCOOK         CLOUDY    82  57  42 E12       29.74R

...EASTERN NEBRASKA...

CITY           SKY/WX    TMP DP  RH WIND       PRES   REMARKS
NORFOLK        CLEAR     77  65  66 SW3       29.68R
SO SIOUX CITY  CLEAR     78  68  71 W5        29.65R
TEKAMAH        CLEAR     79  66  64 NW8       29.65R
COLUMBUS       MOCLDY    83  65  54 SW6       29.70R
ALBION         PTCLDY    77  66  67 CALM      29.72R
OMAHA EPPLEY   PTCLDY    81  63  54 NW7       29.64S
OFFUTT AFB     MOCLDY    76  66  69 NW6       29.64R
MILLARD        CLEAR     82  67  60 NW3       29.65S
LINCOLN        CLEAR     82  64  54 NW3       29.68R
NEBRASKA CITY  CLOUDY    80  73  79 CALM      29.66R
BEATRICE       PTCLDY    81  74  79 CALM      29.68S
FALLS CITY     CLEAR     84  67  56 SW13G28   29.64R

...NORTHERN KANSAS...

CITY           SKY/WX    TMP DP  RH WIND       PRES   REMARKS
GOODLAND       PTCLDY    75  58  55 E8        29.78S
HILL CITY      CLEAR     82  68  62 NE8       29.71R
NORTON         CLEAR     79  52  38 NE6       29.73S
PHILLIPSBURG   CLEAR     84  55  37 N9        29.71R
SMITH CENTER   PTCLDY    82  57  42 N12       29.71R
HAYS           CLEAR     86  66  51 SE14      29.67
RUSSELL        MOCLDY    87  63  44 SE10      29.67R
CONCORDIA      CLEAR     85  66  53 S10       29.67S
SALINA         CLEAR     91  61  36 S13       29.68R HX  91
TOPEKA         CLEAR     85  69  58 S16G23    29.71R



USA.gov is the U.S. government's official web portal to all federal, state and local government web resources and services.